Location: Aranbee
(34.0885°N, 118.2342°W)
Time: 13:06:54
(UTC+00:00)

Tiros 1 - Pass Details

Date: 05 December 2020
Orbit: 630 x 663 km, 48.4° (Epoch: 21 January)

Event Time Altitude Azimuth Distance (km) Brightness Sun altitude
Rises 22:29:23 0° 288° (WNW) 2,991 10.9 21.1°
Reaches altitude 10° 22:32:34 10° 310° (NW) 2,080 9.9 20.6°
Maximum altitude 22:35:35 16° 349° (N) 1,701 9.1 20.2°
Drops below altitude 10° 22:38:35 10° 28° (NNE) 2,079 9.3 19.8°
Sets 22:41:46 0° 50° (NE) 2,988 10.0 19.4°
